Location: Barcelona
(41.3830°N, 2.1830°E)
Time: 15:19:49
(UTC+01:00)

BUGSAT 1 - Visible Passes

Search period start: 21 March 2019 00:00
Search period end: 31 March 2019 00:00
Orbit: 559 x 604 km, 98.0° (Epoch: 21 March)

Date Brightness Start Highest point End Pass type
(mag) Time Alt. Az. Time Alt. Az. Time Alt. Az.
27 Mar ? 02:58:38 10° NNE 02:58:44 11° NNE 02:58:44 11° NNE visible
28 Mar ? 03:04:04 10° NNE 03:04:22 12° NNE 03:04:22 12° NNE visible
29 Mar ? 03:09:30 10° N 03:10:01 13° N 03:10:01 13° N visible
30 Mar ? 03:14:58 10° N 03:15:39 14° N 03:15:39 14° N visible
